SQ5DCP-1 Weather Reports


time (UTC)temp
C
wind
direction
speed
KPH
gust
KPH
rain 1hr
cm
rain 24hr
cm
rain mn
cm
humidity
%
barometer
mb
20260504050517 12 234 6.4 11.3 0.00 0.00 0.00 59 1015.6
20260504045533 11 194 3.2 6.4 0.00 0.00 0.00 61 1015.6
20260504045032 11 189 1.6 4.8 0.00 0.00 0.00 62 1015.7
20260504044530 10 179 1.6 4.8 0.00 0.00 0.00 63 1015.6
20260504044027 10 185 3.2 6.4 0.00 0.00 0.00 63 1015.5
20260504043527 10 174 1.6 4.8 0.00 0.00 0.00 64 1015.6
20260504043220 10 169 1.6 4.8 0.00 0.00 0.00 63 1015.5
20260504043023 10 169 1.6 4.8 0.00 0.00 0.00 63 1015.5
20260504042742 10 109 1.6 1.6 0.00 0.00 0.00 63 1015.4
20260504042522 10 138 0.0 1.6 0.00 0.00 0.00 63 1015.4
20260504042052 10 109 1.6 1.6 0.00 0.00 0.00 63 1015.4
20260504042020 10 109 1.6 1.6 0.00 0.00 0.00 63 1015.4
20260504041518 10 104 1.6 3.2 0.00 0.00 0.00 63 1015.4
20260504041035 10 102 1.6 3.2 0.00 0.00 0.00 63 1015.3
20260504040534 9 106 1.6 3.2 0.00 0.00 0.00 63 1015.2
20260504040032 9 107 1.6 3.2 0.00 0.00 0.00 63 1015.2
20260504035530 9 107 1.6 1.6 0.00 0.00 0.00 63 1015.2
20260504035048 9 108 1.6 3.2 0.00 0.00 0.00 63 1015.3
20260504035028 9 108 1.6 3.2 0.00 0.00 0.00 63 1015.3
20260504034526 9 109 1.6 3.2 0.00 0.00 0.00 62 1015.3
20260504034024 9 108 1.6 1.6 0.00 0.00 0.00 62 1015.3
20260504033522 10 103 1.6 3.2 0.00 0.00 0.00 62 1015.3
20260504033020 10 105 1.6 4.8 0.00 0.00 0.00 62 1015.3
20260504032518 10 105 1.6 1.6 0.00 0.00 0.00 62 1015.2
20260504032017 10 105 1.6 1.6 0.00 0.00 0.00 62 1015.2
20260504031535 10 107 1.6 3.2 0.00 0.00 0.00 62 1015.3
20260504031032 10 105 1.6 3.2 0.00 0.00 0.00 61 1015.3
20260504030531 10 106 1.6 3.2 0.00 0.00 0.00 61 1015.4
20260504030029 10 107 1.6 3.2 0.00 0.00 0.00 61 1015.3
20260504025527 10 108 1.6 3.2 0.00 0.00 0.00 61 1015.3
20260504025025 10 106 1.6 1.6 0.00 0.00 0.00 60 1015.3
20260504024523 10 106 1.6 3.2 0.00 0.00 0.00 60 1015.4
20260504024021 10 104 1.6 3.2 0.00 0.00 0.00 60 1015.3
20260504023519 10 104 1.6 3.2 0.00 0.00 0.00 61 1015.4
20260504023353 10 104 1.6 3.2 0.00 0.00 0.00 61 1015.3
20260504023017 10 104 1.6 3.2 0.00 0.00 0.00 61 1015.3
20260504022536 10 108 3.2 4.8 0.00 0.00 0.00 61 1015.3
20260504022119 10 117 3.2 3.2 0.00 0.00 0.00 61 1015.5
20260504022033 10 117 3.2 3.2 0.00 0.00 0.00 61 1015.5
20260504021532 10 124 3.2 3.2 0.00 0.00 0.00 61 1015.4
20260504021030 10 127 3.2 3.2 0.00 0.00 0.00 61 1015.4
20260504020527 10 148 1.6 3.2 0.00 0.00 0.00 60 1015.4
20260504020026 10 0.0 0.0 0.00 0.00 0.00 59 1015.5
20260504015524 11 0.0 0.0 0.00 0.00 0.00 58 1015.5
20260504015022 11 0.0 0.0 0.00 0.00 0.00 58 1015.6
20260504014520 11 0.0 0.0 0.00 0.00 0.00 58 1015.6
20260504014018 11 0.0 0.0 0.00 0.00 0.00 58 1015.6
20260504013516 11 0.0 0.0 0.00 0.00 0.00 58 1015.6
20260504013035 11 0.0 0.0 0.00 0.00 0.00 58 1015.6
20260504012533 11 0.0 0.0 0.00 0.00 0.00 58 1015.5
20260504012031 11 0.0 0.0 0.00 0.00 0.00 58 1015.6
20260504011529 11 156 0.0 1.6 0.00 0.00 0.00 57 1015.6
20260504011027 11 167 0.0 1.6 0.00 0.00 0.00 57 1015.6
20260504010525 11 0.0 0.0 0.00 0.00 0.00 57 1015.6
20260504010023 11 0.0 0.0 0.00 0.00 0.00 57 1015.6
20260504005521 11 140 1.6 1.6 0.00 0.00 0.00 57 1015.6
20260504005019 11 144 1.6 3.2 0.00 0.00 0.00 57 1015.6
20260504004643 11 235 0.0 1.6 0.00 0.00 0.00 57 1015.6
20260504004518 11 0.0 0.0 0.00 0.00 0.00 57 1015.6
20260504004048 11 235 0.0 1.6 0.00 0.00 0.00 57 1015.6
20260504004016 11 235 0.0 1.6 0.00 0.00 0.00 57 1015.6
20260504003534 11 234 0.0 1.6 0.00 0.00 0.00 57 1015.7
20260504003032 11 212 0.0 1.6 0.00 0.00 0.00 57 1015.7
20260504002530 12 0.0 0.0 0.00 0.00 0.00 57 1015.8
20260504002028 12 216 0.0 3.2 0.00 0.00 0.00 56 1015.7
20260504001526 12 220 0.0 3.2 0.00 0.00 0.00 56 1015.8
20260504001024 12 231 0.0 4.8 0.00 0.00 0.00 55 1015.8
20260504000523 12 0.0 0.0 0.00 0.00 0.00 55 1015.8
20260504000020 12 0.0 0.0 0.00 0.00 0.00 55 1015.8
20260503235519 12 0.0 0.0 0.00 0.00 0.00 55 1015.8
20260503235017 12 216 0.0 3.2 0.00 0.00 0.00 54 1015.8
20260503234535 12 221 1.6 4.8 0.00 0.00 0.00 54 1015.8
20260503234033 12 233 0.0 3.2 0.00 0.00 0.00 54 1015.8
20260503233531 12 0.0 0.0 0.00 0.00 0.00 53 1015.8
20260503233030 12 0.0 0.0 0.00 0.00 0.00 53 1015.7
20260503232527 12 216 0.0 1.6 0.00 0.00 0.00 53 1015.7
20260503232027 12 197 0.0 3.2 0.00 0.00 0.00 53 1015.7
20260503231525 12 203 0.0 1.6 0.00 0.00 0.00 53 1015.7
20260503231022 12 191 1.6 4.8 0.00 0.00 0.00 53 1015.7
20260503230520 12 187 1.6 4.8 0.00 0.00 0.00 53 1015.7
20260503230019 12 196 1.6 3.2 0.00 0.00 0.00 52 1015.8
20260503225517 13 214 0.0 1.6 0.00 0.00 0.00 52 1015.8
20260503225035 13 193 1.6 4.8 0.00 0.00 0.00 52 1015.7
20260503224533 13 195 1.6 4.8 0.00 0.00 0.00 51 1015.8
20260503224033 13 207 1.6 3.2 0.00 0.00 0.00 51 1015.8
20260503223529 13 212 1.6 3.2 0.00 0.00 0.00 51 1015.7
20260503223027 13 230 0.0 1.6 0.00 0.00 0.00 50 1015.7
20260503222526 13 208 1.6 3.2 0.00 0.00 0.00 50 1015.7
20260503222024 13 200 1.6 4.8 0.00 0.00 0.00 50 1015.6
20260503221522 13 192 1.6 4.8 0.00 0.00 0.00 50 1015.6
20260503221020 13 184 3.2 6.4 0.00 0.00 0.00 50 1015.7
20260503220518 13 181 4.8 9.7 0.00 0.00 0.00 50 1015.6
20260503220016 13 185 4.8 9.7 0.00 0.00 0.00 50 1015.7
20260503215534 13 195 3.2 4.8 0.00 0.00 0.00 50 1015.6
20260503215033 13 186 3.2 6.4 0.00 0.00 0.00 49 1015.6
20260503214531 13 188 3.2 9.7 0.00 0.00 0.00 49 1015.7
20260503214049 14 183 128.7 4.8 0.00 0.00 0.00 48 1015.6
20260503214029 14 183 1.6 4.8 0.00 0.00 0.00 48 1015.6
20260503213527 14 0.0 0.0 0.00 0.00 0.00 48 1015.5
20260503213025 14 0.0 0.0 0.00 0.00 0.00 47 1015.6
20260503212523 14 0.0 0.0 0.00 0.00 0.00 47 1015.6
20260503212022 15 0.0 0.0 0.00 0.00 0.00 47 1015.6
20260503211520 15 0.0 0.0 0.00 0.00 0.00 47 1015.6
20260503211050 15 0.0 0.0 0.00 0.00 0.00 47 1015.6
20260503211018 15 0.0 0.0 0.00 0.00 0.00 47 1015.6
20260503210516 15 0.0 0.0 0.00 0.00 0.00 47 1015.7
20260503210034 15 0.0 0.0 0.00 0.00 0.00 46 1015.7
20260503205532 15 0.0 0.0 0.00 0.00 0.00 46 1015.7
20260503205030 15 0.0 0.0 0.00 0.00 0.00 46 1015.7
20260503204528 15 0.0 0.0 0.00 0.00 0.00 45 1015.6
20260503204027 15 0.0 0.0 0.00 0.00 0.00 45 1015.5
20260503203525 16 0.0 0.0 0.00 0.00 0.00 44 1015.6
20260503203023 16 0.0 0.0 0.00 0.00 0.00 44 1015.6
20260503202521 16 0.0 0.0 0.00 0.00 0.00 44 1015.6
20260503202019 16 0.0 0.0 0.00 0.00 0.00 43 1015.6
20260503201517 16 0.0 0.0 0.00 0.00 0.00 43 1015.6
20260503201034 16 0.0 0.0 0.00 0.00 0.00 42 1015.6
20260503200533 16 0.0 0.0 0.00 0.00 0.00 42 1015.6
20260503200031 17 0.0 0.0 0.00 0.00 0.00 42 1015.7
20260503195528 17 0.0 0.0 0.00 0.00 0.00 41 1015.7
20260503195026 17 0.0 0.0 0.00 0.00 0.00 41 1015.7
20260503194525 17 207 0.0 1.6 0.00 0.00 0.00 41 1015.7
20260503194023 17 196 0.0 1.6 0.00 0.00 0.00 40 1015.7
20260503193521 17 196 1.6 1.6 0.00 0.00 0.00 40 1015.7
20260503193051 17 192 1.6 4.8 0.00 0.00 0.00 40 1015.7
20260503193019 17 192 1.6 4.8 0.00 0.00 0.00 40 1015.7
20260503192517 18 187 3.2 6.4 0.00 0.00 0.00 39 1015.7
20260503192035 18 179 3.2 4.8 0.00 0.00 0.00 39 1015.7
20260503191532 18 182 3.2 4.8 0.00 0.00 0.00 38 1015.6
20260503191030 18 183 3.2 4.8 0.00 0.00 0.00 38 1015.7
20260503190529 18 187 4.8 6.4 0.00 0.00 0.00 37 1015.6
20260503190027 19 185 4.8 6.4 0.00 0.00 0.00 37 1015.6
20260503185525 19 186 3.2 6.4 0.00 0.00 0.00 37 1015.6
20260503185024 20 184 3.2 6.4 0.00 0.00 0.00 36 1015.5
20260503184521 20 186 3.2 6.4 0.00 0.00 0.00 36 1015.5
20260503184019 20 182 3.2 4.8 0.00 0.00 0.00 35 1015.5
20260503183518 20 188 3.2 6.4 0.00 0.00 0.00 35 1015.5
20260503183035 21 183 4.8 6.4 0.00 0.00 0.00 34 1015.6
20260503182534 21 184 4.8 6.4 0.00 0.00 0.00 34 1015.6
20260503182031 21 186 4.8 4.8 0.00 0.00 0.00 33 1015.5
20260503181528 21 182 3.2 6.4 0.00 0.00 0.00 32 1015.3
20260503181027 22 184 3.2 6.4 0.00 0.00 0.00 32 1015.4
20260503180525 22 189 3.2 6.4 0.00 0.00 0.00 31 1015.4
20260503180024 22 182 3.2 11.3 0.00 0.00 0.00 31 1015.4
20260503175521 22 184 3.2 9.7 0.00 0.00 0.00 31 1015.3
20260503175019 22 187 3.2 4.8 0.00 0.00 0.00 30 1015.3
20260503174516 22 193 3.2 6.4 0.00 0.00 0.00 30 1015.2
20260503174034 22 187 3.2 6.4 0.00 0.00 0.00 30 1015.3
20260503173533 23 186 4.8 11.3 0.00 0.00 0.00 30 1015.2
20260503173031 23 183 3.2 11.3 0.00 0.00 0.00 29 1015.2
20260503172529 23 184 4.8 11.3 0.00 0.00 0.00 29 1015.3
20260503172219 23 192 4.8 6.4 0.00 0.00 0.00 28 1015.3
20260503172027 23 192 4.8 6.4 0.00 0.00 0.00 28 1015.3
20260503171525 23 192 3.2 9.7 0.00 0.00 0.00 28 1015.4
20260503171023 23 190 4.8 14.5 0.00 0.00 0.00 28 1015.3
20260503170521 23 193 4.8 11.3 0.00 0.00 0.00 27 1015.3
20260503150533 25 194 11.3 22.5 0.00 0.00 0.00 26 1015.9
20260503131018 26 198 9.7 22.5 0.00 0.00 0.00 27 1017.1
20260503130517 26 246 9.7 20.9 0.00 0.00 0.00 27 1017.1
20260503110530 25 219 9.7 22.5 0.00 0.00 0.00 27 1018.3
20260503081525 21 240 9.7 22.5 0.00 0.00 0.00 37 1019.7
20260503081024 21 196 12.9 27.4 0.00 0.00 0.00 37 1019.8
20260503080521 20 183 16.1 30.6 0.00 0.00 0.00 38 1019.9